GFSNE_sfc_30mbdewp_021.txt.gz
Dewpoint
34 33 29 28 29 28 26 24 23 20 20 21 20 21 21 21 22 22 22 23 24 25 24 24 23 24 25 25 27 29 31 33 34 36 36 39 42 43
32 29 29 30 28 28 25 25 24 22 20 20 19 19 21 20 20 21 22 21 21 23 25 26 26 25 25 27 31 31 32 32 34 37 37 38 41 42
32 30 28 29 27 26 26 23 20 18 16 17 19 20 19 19 20 21 21 20 21 22 25 26 26 28 31 31 31 32 32 31 34 37 38 38 40 42
27 28 27 27 25 25 21 17 17 17 18 17 17 18 18 19 18 19 19 20 22 23 23 25 26 28 32 34 35 35 34 34 37 37 38 39 40 40
27 27 27 25 21 19 16 15 16 16 17 17 16 17 17 18 17 19 19 20 21 21 21 22 27 28 31 33 35 36 34 35 36 37 38 39 39 39
26 26 24 18 15 15 14 14 15 17 17 17 16 15 16 18 19 17 20 24 22 22 23 26 25 26 28 33 35 34 34 35 35 36 38 39 40 41
22 20 18 18 18 16 15 16 18 18 18 17 16 16 17 17 18 22 20 19 17 19 20 21 20 23 27 31 34 36 35 34 35 35 37 39 39 39
21 20 17 18 20 21 21 20 19 17 17 18 18 16 17 19 23 20 17 15 13 17 19 17 19 18 21 25 34 35 33 34 35 37 36 38 37 38
21 18 18 20 19 17 18 17 16 17 17 17 15 14 13 15 17 17 17 18 17 18 19 17 18 18 21 22 26 29 33 34 34 35 36 38 36 36
21 20 19 18 18 17 17 16 16 17 15 16 14 13 14 17 18 19 19 19 20 21 20 18 19 20 24 26 26 28 33 34 34 34 35 37 36 36
22 21 21 16 20 18 17 16 16 17 16 16 15 18 20 22 21 23 23 22 19 19 20 20 21 24 23 26 26 26 30 34 33 32 34 35 36 35
23 20 19 17 18 18 18 16 15 15 17 16 16 18 20 21 23 22 22 22 22 20 20 22 21 23 22 24 24 28 30 33 33 32 33 34 36 36
21 20 20 19 20 21 20 17 16 17 17 17 17 18 19 21 21 22 23 24 23 23 24 24 22 21 22 23 24 29 31 31 32 33 33 32 36 37
19 20 22 23 22 21 21 20 20 20 17 15 16 14 17 18 20 22 23 24 24 25 29 28 23 22 21 20 23 26 29 30 33 33 32 32 32 35
19 20 23 24 22 23 23 22 20 17 15 16 13 13 14 18 21 21 21 22 24 25 26 30 25 24 22 21 21 23 24 28 31 33 32 31 32 32
20 21 23 23 22 21 21 21 20 19 17 15 12 13 16 17 18 20 19 22 22 21 24 29 27 24 21 21 22 21 22 22 30 31 33 32 32 32
21 21 23 21 19 20 20 19 19 18 17 14 13 15 14 16 16 18 19 22 20 20 21 24 28 27 24 23 22 21 22 24 27 29 30 31 32 32
25 23 21 17 18 19 20 19 18 17 16 14 14 15 15 15 16 17 18 19 19 18 19 23 22 25 25 23 24 21 23 26 26 26 27 28 29 31
21 19 18 18 17 19 21 20 18 15 14 16 15 13 15 16 16 16 16 16 17 17 18 20 20 19 17 17 25 28 22 26 27 27 25 24 26 29
21 19 18 19 19 21 21 20 18 17 17 17 16 13 15 16 16 16 16 14 15 16 14 15 17 19 20 19 21 25 28 26 25 26 25 25 27 28
23 22 21 21 21 21 21 20 17 17 17 16 15 14 17 16 15 15 16 13 13 14 13 13 14 18 24 24 23 24 24 27 28 27 27 25 25 25
23 23 23 23 23 23 24 22 19 19 18 17 16 17 15 14 12 12 15 14 13 14 12 11 15 20 25 25 23 24 23 24 25 25 27 29 27 23
26 25 24 24 23 23 23 22 21 20 20 19 18 15 14 15 12 12 16 17 12 12 11 11 13 17 22 21 22 24 24 24 23 21 22 25 27 28

GFSNE_sfc_30mbdewp_027.txt.gz
Dewpoint
35 32 32 32 30 28 27 25 25 22 21 21 20 21 20 20 19 20 21 21 19 19 21 22 23 24 24 25 25 25 27 26 27 29 32 33 34 34
31 31 32 30 30 29 27 26 25 26 26 22 19 19 19 18 18 19 20 20 21 23 20 21 22 24 24 24 26 26 26 27 28 29 32 33 33 33
31 31 30 30 29 28 26 24 21 19 17 16 18 18 17 17 17 19 20 20 21 20 22 22 21 21 22 25 27 27 27 28 29 30 31 30 31 31
28 29 28 28 27 26 23 20 17 16 15 14 16 16 17 17 17 18 19 19 20 22 20 18 18 18 18 27 25 24 24 27 29 31 33 32 31 31
28 27 27 27 26 23 20 17 16 16 17 17 17 17 17 17 17 19 19 20 22 19 16 17 17 19 20 22 21 22 22 28 34 34 34 34 33 33
27 27 27 24 21 17 17 15 15 15 17 17 17 16 17 18 18 18 15 17 17 17 18 19 19 20 21 21 21 22 23 27 30 33 34 35 35 33
24 21 20 19 19 17 16 15 17 18 17 15 15 16 16 15 14 14 15 16 18 18 19 19 20 21 22 22 22 22 24 26 29 33 33 33 32 33
22 21 20 20 22 23 22 22 19 16 14 15 15 15 14 15 14 15 17 18 16 19 19 21 21 20 21 22 22 24 25 25 28 29 30 33 32 32
21 21 19 18 21 23 23 20 18 18 17 15 14 14 16 15 16 18 19 20 20 21 22 20 20 19 20 21 23 26 27 28 29 31 32 34 32 32
22 22 20 19 20 18 17 16 16 17 16 15 16 17 17 18 19 20 23 23 22 21 21 19 20 20 21 22 24 29 29 30 32 33 34 33 32 32
23 22 21 21 21 22 19 17 17 18 16 17 18 19 19 19 18 19 19 19 17 17 19 20 20 20 22 23 24 26 28 28 29 30 31 32 31 33
23 23 25 22 21 23 21 18 19 19 16 15 17 18 18 18 18 18 20 19 18 16 20 21 19 22 21 21 23 22 24 27 28 29 30 32 34 33
22 22 22 22 22 23 22 21 21 19 18 19 20 19 18 17 16 18 19 20 19 18 19 22 22 22 23 21 21 22 25 25 26 29 31 32 33 33
21 22 23 23 24 23 23 24 24 23 22 21 20 18 17 16 15 17 19 20 21 21 22 23 23 24 22 21 20 21 22 25 25 28 31 32 33 32
23 23 24 24 24 24 25 25 24 22 20 19 18 17 16 15 16 18 18 19 20 22 22 22 23 24 25 22 21 22 22 23 26 27 29 31 31 31
26 26 25 25 23 24 23 24 23 21 20 19 17 16 14 15 15 17 17 18 18 18 19 21 22 24 25 24 24 22 22 22 23 26 29 31 31 32
29 26 24 23 22 21 22 21 21 20 19 18 17 16 14 15 15 16 17 17 15 16 18 19 20 20 22 26 22 22 22 22 24 27 29 29 30 31
27 24 22 22 21 22 21 20 20 18 18 19 17 15 14 15 14 16 16 16 15 15 16 17 18 17 18 18 27 24 23 24 25 27 27 28 27 30
26 24 23 23 22 22 22 20 20 18 18 18 17 14 14 13 14 16 15 15 15 14 15 16 15 16 15 15 17 27 24 24 25 25 25 26 26 27
28 25 24 24 23 23 22 21 20 19 17 18 16 14 13 13 13 15 15 13 14 14 14 13 12 14 16 16 18 21 27 25 24 24 25 26 27 28
26 27 25 24 23 22 22 21 19 18 16 16 15 14 13 12 13 15 14 12 14 15 12 11 11 16 21 22 19 20 23 26 28 25 26 24 24 24
28 26 26 25 24 23 22 21 20 18 17 16 15 15 14 12 15 14 12 12 15 15 12 12 14 17 22 22 20 20 21 22 24 25 27 27 24 21
28 27 26 26 25 24 23 22 21 20 18 18 17 15 14 13 15 14 11 13 16 13 11 10 13 14 13 20 21 21 20 21 22 20 21 26 28 28

GFSNE_sfc_30mbdewp_033.txt.gz
Dewpoint
37 37 35 34 33 33 32 30 27 23 20 20 24 26 25 23 18 19 18 15 18 21 21 22 23 23 23 23 24 24 24 24 25 25 28 30 31 31
36 35 34 32 32 32 31 30 29 27 22 20 22 24 23 17 16 19 15 16 16 19 21 22 22 22 22 22 22 22 22 23 23 25 27 28 29 29
35 32 31 32 31 31 31 30 29 28 24 20 21 19 19 17 17 15 13 13 14 16 18 20 21 22 21 21 21 21 22 22 22 25 27 26 24 26
30 30 30 30 32 32 31 30 28 26 24 17 16 16 16 17 16 14 12 13 15 14 17 20 20 21 22 23 23 23 23 23 23 23 24 24 24 25
29 30 29 31 30 29 29 27 25 23 21 18 15 15 17 16 13 11 11 14 12 13 15 17 19 21 22 23 24 24 25 25 24 22 23 24 25 27
30 31 30 30 28 28 27 26 23 20 18 16 15 15 15 14 13 9 10 11 12 13 16 18 19 19 20 22 24 25 25 25 25 24 24 25 28 29
31 31 30 30 29 28 25 23 20 18 17 16 15 14 13 12 8 11 12 12 13 14 16 16 16 16 17 19 20 21 24 25 26 26 26 26 28 30
30 30 29 29 30 29 25 21 19 19 18 17 15 14 14 12 10 13 14 13 11 13 14 14 15 15 15 17 18 22 24 26 30 28 29 28 29 31
30 29 28 24 24 23 25 28 25 21 21 19 17 15 16 11 13 14 13 13 13 13 14 13 14 14 15 16 20 22 24 26 27 28 28 29 30 31
30 29 28 26 24 22 21 22 22 23 22 20 18 17 15 13 15 17 17 16 14 13 12 12 14 16 17 19 21 23 25 27 25 26 27 28 28 29
29 28 27 26 25 24 21 21 20 19 19 20 20 22 19 21 21 19 17 14 14 12 12 14 14 15 17 19 21 22 25 25 25 25 25 26 27 28
29 27 26 25 24 25 24 24 21 18 18 17 18 17 19 18 20 21 16 15 14 13 11 14 15 15 15 16 19 22 24 24 25 25 25 27 27 29
28 28 27 26 26 26 26 26 25 23 20 18 18 14 16 18 18 18 17 15 15 13 13 15 16 17 18 19 18 21 24 24 24 23 24 28 29 28
29 28 29 27 27 28 28 27 26 24 22 22 21 19 19 19 17 17 17 17 16 15 15 15 18 18 19 18 17 20 24 24 23 24 28 29 30 31
31 31 29 28 27 27 28 27 27 27 26 24 22 20 20 19 18 19 19 18 15 16 14 16 18 19 18 17 17 19 23 22 25 25 29 30 31 32
30 31 30 28 28 28 27 29 30 29 27 25 25 22 21 21 20 20 19 17 15 15 15 15 16 17 17 16 16 21 22 22 24 27 30 30 32 31
31 31 30 29 28 27 28 28 27 29 27 26 26 24 21 20 20 20 19 16 15 15 15 15 14 14 15 16 18 21 21 22 24 26 28 29 31 31
26 27 28 29 28 27 27 26 26 26 26 26 25 24 22 20 20 19 18 16 14 14 14 14 14 15 15 19 24 21 21 21 24 25 28 27 28 30
25 26 28 29 29 27 27 26 25 26 26 25 25 24 23 21 20 19 18 16 15 14 14 14 13 14 15 15 18 21 21 22 23 25 27 28 28 28
23 25 25 27 28 27 26 25 26 27 26 25 24 25 24 21 20 19 18 17 15 14 13 13 10 13 16 17 17 20 23 24 24 25 25 27 30 31
15 15 17 22 29 27 27 27 26 26 26 25 24 24 24 21 21 19 19 16 16 13 12 12 10 13 16 23 19 20 24 26 26 25 26 25 25 28
12 13 14 17 20 30 28 27 26 26 25 24 24 24 23 21 20 20 20 19 16 14 13 13 11 14 16 20 19 22 22 25 27 27 26 27 25 23
10 10 12 14 16 17 22 28 27 26 25 24 23 23 23 20 20 21 21 18 16 14 14 12 9 13 14 18 20 22 22 23 23 24 24 26 27 26

GFSNE_sfc_30mbdewp_036.txt.gz
Dewpoint
35 33 31 28 29 28 27 26 24 22 19 19 18 21 24 24 22 21 19 19 20 19 20 21 23 23 24 24 24 24 24 24 25 25 26 26 27 30
33 32 31 28 27 27 25 25 25 23 21 20 18 19 22 21 20 17 18 18 17 18 17 19 20 21 22 23 23 23 23 23 23 23 24 24 25 29
32 30 29 28 27 26 26 25 24 23 21 20 18 18 20 21 19 18 17 14 11 14 16 17 19 20 22 22 23 23 23 23 23 23 24 24 24 29
29 30 28 27 28 28 26 26 25 24 22 19 19 17 17 18 18 18 15 11 10 13 15 16 18 19 21 23 23 24 24 24 24 24 24 23 23 25
29 28 28 28 28 27 27 26 24 22 22 20 18 18 17 15 15 15 13 11 11 10 14 16 16 18 20 21 22 24 25 25 25 25 25 24 23 24
30 30 29 29 28 28 26 26 24 23 21 19 18 17 14 13 13 12 8 8 10 10 13 16 18 18 20 20 21 22 24 24 25 25 25 26 26 25
31 31 30 31 31 30 26 25 24 22 20 19 17 15 13 11 11 11 8 10 12 12 11 12 13 13 14 16 19 21 21 22 24 25 26 32 29 28
30 30 30 32 31 32 30 29 26 23 21 21 19 15 13 13 13 11 10 11 10 11 12 12 13 12 13 14 17 19 21 23 24 26 28 28 27 29
29 29 28 26 28 30 30 30 26 21 20 21 20 17 15 14 15 10 10 11 12 12 11 10 12 11 13 13 19 22 24 24 26 27 27 26 28 29
28 27 26 26 26 27 27 27 26 25 25 21 20 18 17 17 15 12 15 15 14 13 11 10 11 12 15 16 19 23 23 24 25 26 26 26 27 28
26 26 26 26 27 29 27 26 26 25 24 25 24 23 21 21 17 15 16 15 15 12 10 12 12 12 14 16 19 21 23 25 26 26 25 25 27 27
27 26 27 28 28 29 27 27 26 25 24 21 20 21 23 21 22 20 17 15 14 13 12 13 12 12 13 15 18 19 23 24 26 26 27 27 27 26
28 28 27 28 28 28 28 27 28 28 26 27 23 19 18 15 15 18 17 16 15 13 12 13 13 14 14 13 15 18 22 24 26 24 22 26 30 31
30 31 31 31 30 30 28 27 27 28 29 32 25 22 21 18 17 16 15 16 16 15 14 15 16 15 16 16 15 18 19 23 25 25 27 28 30 33
28 30 30 30 33 32 30 29 28 29 31 29 28 26 24 24 24 18 17 17 17 17 14 16 16 15 15 16 15 18 17 21 24 25 28 30 31 31
22 24 26 28 31 32 33 32 29 30 31 29 28 27 29 29 26 20 18 18 17 16 15 17 17 16 15 14 13 16 18 22 24 26 28 30 32 32
22 25 24 24 22 26 29 31 32 30 30 30 29 29 28 28 26 21 19 18 17 16 15 16 16 16 15 14 14 16 20 22 23 26 27 29 32 31
20 24 26 26 25 23 26 29 31 30 30 30 28 28 28 26 25 23 20 18 17 15 13 14 16 15 15 15 20 19 20 21 22 25 27 29 29 30
17 17 20 22 22 25 26 27 29 30 30 28 27 27 28 27 26 25 22 19 17 15 13 14 15 13 14 16 21 22 21 22 23 25 27 29 29 29
13 14 15 17 18 19 20 29 28 30 30 28 28 28 28 27 26 24 22 18 17 15 13 13 13 11 14 17 19 20 24 24 24 24 25 29 32 32
10 11 13 14 16 17 20 21 30 28 29 29 27 27 28 26 26 24 21 18 18 15 12 12 13 13 13 19 21 23 28 26 27 25 26 26 27 28
9 10 11 12 14 15 17 19 25 29 28 28 28 27 27 27 26 25 21 20 18 16 13 13 14 10 15 19 19 23 24 26 27 27 27 27 25 24
9 9 10 11 13 13 14 15 17 20 29 28 27 27 28 26 27 26 22 20 18 16 13 13 13 9 14 16 19 23 23 24 23 25 24 26 26 25